[[{"header":{"parameterUnit":"m.s-1","parameterCategory":1,"la1":30.2991,"la2":30.254,"lo1":-89.0895,"lo2":-89.0444,"dy":0.0017,"dx":0.0017,"nx":28,"ny":28,"refTime":"2024-02-25T03:00:00:Z","depth":0,"parameterNumber":2,"parameterNumberName":"U-component_of_WINDS"},"data":[0,0,0,0,0,0,0,0,0,0,0,0,0,0,0,0,0,0,0,0,0,0,0,0,0,0,0,0,0,0,0,0,0,0,0,0,0,0,0,0,0,0,0,0,0,0,0,0,0,0,0,0,0,0,0,0,0,0,-1.1951,-1.1952,0,-1.2061,-1.2062,-1.2063,-1.21,-1.2099,-1.2099,-1.2099,-1.2216,-1.222,-1.2223,0,0,0,0,0,0,0,0,0,0,0,0,0,-1.1777,-1.178,-1.1951,-1.1952,-1.1953,-1.206,-1.2062,-1.2063,-1.21,-1.2099,-1.2099,-1.2098,-1.2215,-1.2219,-1.2224,0,0,0,0,0,0,0,0,0,0,0,0,0,-1.1866,-1.1781,-1.195,-1.1984,-1.1988,-1.206,-1.2062,-1.2064,-1.21,-1.2099,-1.2099,-1.2098,-1.2214,-1.2219,-1.2224,-1.2272,0,0,-1.2241,-1.2243,0,0,0,0,0,0,0,0,-1.1861,-1.1872,-1.1978,-1.1982,-1.1987,-1.2066,-1.2044,-1.2134,-1.21,-1.2058,-1.2099,-1.2098,-1.2167,-1.2176,-1.2199,-1.2277,-1.2282,-1.2241,-1.2244,-1.2247,-1.2248,0,0,0,0,0,0,0,-1.1855,-1.1868,-1.1994,-1.198,-1.1985,-1.1996,-1.2007,-1.2061,-1.2115,-1.2062,-1.2064,-1.2077,-1.217,-1.2193,-1.2202,-1.2284,-1.2241,-1.2246,-1.2249,-1.2251,-1.2406,-1.2407,0,0,0,0,0,0,-1.1842,-1.1863,-1.1991,-1.1998,-1.1921,-1.1999,-1.2013,-1.2041,-1.2115,-1.2125,-1.2077,-1.2078,-1.2185,-1.2195,-1.2206,-1.2266,-1.2247,-1.2252,-1.2255,-1.2406,-1.2407,-1.2408,0,0,0,0,0,0,-1.1838,-1.1853,-1.1986,-1.1931,-1.1949,-1.2003,-1.2035,-1.2044,-1.2068,-1.2127,-1.2137,-1.2091,-1.2184,-1.2198,-1.2255,-1.227,-1.2254,-1.2259,-1.2404,-1.2406,-1.2407,-1.2385,0,0,0,0,0,0,-1.1833,-1.1852,-1.1869,-1.1931,-1.1951,-1.2032,-1.2036,-1.2046,-1.2076,-1.2078,-1.2143,-1.2153,-1.2185,-1.2246,-1.226,-1.2277,-1.2263,-1.2403,-1.2405,-1.2407,-1.2385,-1.2386,-1.2387,0,0,0,0,0,-1.1827,-1.186,-1.187,-1.1885,-1.1974,-1.2032,-1.2044,-1.2079,-1.2077,-1.2096,-1.2134,-1.2151,-1.2266,-1.2252,-1.2267,-1.2287,-1.2402,-1.2405,-1.2407,-1.2385,-1.2386,-1.2387,0,0,0,0,0,0,-1.1801,-1.1869,-1.188,-1.1935,-1.1977,-1.2038,-1.2063,-1.208,-1.2125,-1.2126,-1.2169,-1.2183,-1.2236,-1.2267,-1.225,-1.2336,-1.2335,-1.2341,-1.2313,-1.2315,-1.2316,-1.2307,-1.2268,0,0,0,0,0,-1.1801,-1.1841,-1.1899,-1.1941,-1.1962,-1.2009,-1.2035,-1.2058,-1.2105,-1.2124,-1.2166,-1.2212,-1.2259,-1.2289,-1.2335,-1.239,-1.2404,-1.2411,-1.2412,-1.2412,-1.2416,-1.2447,-1.245,-1.2414,-1.2414,-1.2414,0,0,-1.1803,-1.1845,-1.1868,-1.1937,-1.1973,-1.2014,-1.2024,-1.2068,-1.2099,-1.2131,-1.2186,-1.2218,-1.2273,-1.2328,-1.2355,-1.2356,-1.2429,-1.2415,-1.2414,-1.2418,-1.2449,-1.2452,-1.2455,-1.2416,-1.2415,-1.2415,0,0,-1.1827,-1.1863,-1.1901,-1.1936,-1.1989,-1.202,-1.2029,-1.2088,-1.211,-1.2165,-1.219,-1.2229,-1.2308,-1.2346,-1.2375,-1.2412,-1.2429,-1.2426,-1.243,-1.246,-1.2462,-1.2465,-1.2478,-1.2482,-1.243,-1.243,-1.243,0,-1.1823,-1.1885,-1.192,-1.1961,-1.1991,-1.202,-1.2059,-1.2092,-1.2159,-1.2179,-1.2179,-1.2279,-1.2318,-1.2382,-1.239,-1.2414,-1.2426,-1.2419,-1.2459,-1.2462,-1.2465,-1.2478,-1.2482,-1.2429,-1.2429,-1.2429,-1.2429,0,-1.1877,-1.1919,-1.1944,-1.2005,-1.2038,-1.2078,-1.212,-1.2149,-1.2169,-1.22,-1.2256,-1.2303,-1.2359,-1.2376,-1.2398,-1.2443,-1.2442,-1.245,-1.245,-1.2467,-1.2479,-1.2485,-1.2428,-1.2428,-1.2428,-1.2429,0,0,-1.1889,-1.1966,-1.1975,-1.2002,-1.2062,-1.2097,-1.2139,-1.2191,-1.2215,-1.226,-1.2297,-1.2363,-1.237,-1.2403,-1.2429,-1.2455,-1.248,-1.246,-1.2462,-1.2461,-1.2533,-1.2526,-1.2531,-1.2492,-1.2493,-1.2494,-1.2528,0,-1.192,-1.1994,-1.2026,-1.2086,-1.2126,-1.2153,-1.219,-1.2231,-1.2261,-1.2301,-1.2335,-1.238,-1.2387,-1.2407,-1.2434,-1.2471,-1.2495,-1.2469,-1.2527,-1.2529,-1.2512,-1.2538,-1.2531,-1.2561,-1.2533,-1.2534,-1.2535,0,-1.1967,-1.2009,-1.2072,-1.2126,-1.2144,-1.2176,-1.2226,-1.2263,-1.2311,-1.2331,-1.2367,-1.2391,-1.2437,-1.2434,-1.2499,-1.2481,-1.2507,-1.2529,-1.2531,-1.2537,-1.2532,-1.2544,-1.2572,-1.2576,-1.2543,-1.2542,-1.2542,0,-1.1968,-1.2041,-1.2087,-1.211,-1.2175,-1.2196,-1.2225,-1.2272,-1.2301,-1.2345,-1.2365,-1.2415,-1.2443,-1.2481,-1.2519,-1.2513,-1.258,-1.258,-1.2598,-1.2597,-1.2611,-1.261,-1.2642,-1.2628,-1.2628,-1.2628,-1.2628,0,-1.1999,-1.2037,-1.2088,-1.2117,-1.216,-1.2197,-1.2239,-1.227,-1.2311,-1.2347,-1.2375,-1.2409,-1.2456,-1.2496,-1.2526,-1.2575,-1.2587,-1.2605,-1.2613,-1.2603,-1.26,-1.262,-1.2618,-1.2629,-1.2629,-1.2629,-1.2629,0,-1.2008,-1.2044,-1.2097,-1.2152,-1.2167,-1.2196,-1.2245,-1.2275,-1.2305,-1.2351,-1.2364,-1.2413,-1.2461,-1.2502,-1.2567,-1.2586,-1.2637,-1.2646,-1.262,-1.2624,-1.2639,-1.2637,-1.2686,-1.2694,-1.2674,-1.2675,-1.2675,0,-1.2025,-1.2054,-1.2112,-1.2137,-1.2164,-1.2204,-1.2233,-1.2271,-1.23,-1.2356,-1.2379,-1.2429,-1.2471,-1.2548,-1.259,-1.264,-1.265,-1.2663,-1.2658,-1.2646,-1.2649,-1.2647,-1.265,-1.2664,-1.2664,-1.2664,-1.2664,0,-1.2052,-1.2068,-1.2108,-1.2153,-1.2186,-1.2225,-1.2264,-1.2284,-1.2329,-1.2361,-1.2409,-1.2441,-1.2506,-1.2555,-1.2609,-1.264,-1.266,-1.2665,-1.2672,-1.2661,-1.2645,-1.2653,-1.262,-1.2664,-1.2664,-1.2664,-1.2664,-1.2664,-1.2066,-1.2092,-1.2136,-1.2179,-1.2212,-1.2248,-1.2277,-1.2311,-1.2351,-1.2405,-1.2425,-1.2475,-1.2522,-1.2596,-1.2627,-1.2667,-1.267,-1.268,-1.2682,-1.2684,-1.2682,-1.2638,-1.2677,-1.2677,-1.2677,-1.2678,-1.2678,0,-1.2093,-1.2122,-1.2161,-1.2214,-1.2248,-1.2261,-1.2305,-1.2333,-1.2375,-1.2416,-1.2456,-1.2512,-1.256,-1.2605,-1.2655,-1.2679,-1.2689,-1.2691,-1.2689,-1.2696,-1.2677,-1.2666,-1.2682,-1.2682,-1.2682,-1.2682,-1.2682,-1.2682,-1.2111,-1.2156,-1.2177,-1.2239,-1.2269,-1.2315,-1.2339,-1.2373,-1.2405,-1.2465,-1.2504,-1.2532,-1.2576,-1.2629,-1.2674,-1.2686,-1.2704,-1.2703,-1.2717,-1.2699,-1.2698,-1.2697,-1.2686,-1.2706,-1.2706,-1.2733,-1.2733,-1.2733]},{"header":{"parameterUnit":"m.s-1","parameterCategory":1,"la1":30.2991,"la2":30.254,"lo1":-89.0895,"lo2":-89.0444,"dy":0.0017,"dx":0.0017,"nx":28,"ny":28,"refTime":"2024-02-25T03:00:00:Z","depth":0,"parameterNumber":3,"parameterNumberName":"V-component_of_WINDS"},"data":[0,0,0,0,0,0,0,0,0,0,0,0,0,0,0,0,0,0,0,0,0,0,0,0,0,0,0,0,0,0,0,0,0,0,0,0,0,0,0,0,0,0,0,0,0,0,0,0,0,0,0,0,0,0,0,0,0,0,1.4679,1.4681,0,1.4857,1.4859,1.4861,1.4898,1.4896,1.4895,1.4894,1.5073,1.5079,1.5085,0,0,0,0,0,0,0,0,0,0,0,0,0,1.4369,1.4374,1.4679,1.4681,1.4683,1.4857,1.4859,1.4861,1.4898,1.4896,1.4895,1.4893,1.5071,1.5078,1.5085,0,0,0,0,0,0,0,0,0,0,0,0,0,1.4521,1.4376,1.4679,1.4723,1.4728,1.4856,1.4859,1.4862,1.4898,1.4896,1.4894,1.4892,1.5069,1.5077,1.5086,1.5182,0,0,1.5114,1.5118,0,0,0,0,0,0,0,0,1.4512,1.4532,1.4714,1.472,1.4726,1.4853,1.4815,1.4969,1.4899,1.4834,1.4894,1.4891,1.5001,1.5016,1.5053,1.519,1.5198,1.5115,1.512,1.5124,1.5126,0,0,0,0,0,0,0,1.4501,1.4524,1.4749,1.4716,1.4724,1.4733,1.4752,1.4845,1.4926,1.4839,1.4842,1.4863,1.5004,1.5044,1.5058,1.5201,1.5114,1.5122,1.5128,1.5131,1.5427,1.5429,0,0,0,0,0,0,1.4483,1.4515,1.4744,1.4755,1.4612,1.474,1.4762,1.4814,1.4925,1.4941,1.4864,1.4864,1.503,1.5047,1.5064,1.5186,1.5124,1.5132,1.5137,1.5424,1.5427,1.543,0,0,0,0,0,0,1.4477,1.4503,1.4737,1.4636,1.4666,1.4747,1.4806,1.4819,1.4859,1.4945,1.4959,1.4891,1.5029,1.5051,1.5153,1.5192,1.5136,1.5145,1.5421,1.5425,1.5428,1.5427,0,0,0,0,0,0,1.4468,1.4501,1.4539,1.4637,1.4672,1.4823,1.4809,1.4824,1.4875,1.4876,1.4973,1.4987,1.5029,1.5139,1.5162,1.5204,1.5152,1.5418,1.5423,1.5427,1.5424,1.5431,1.5436,0,0,0,0,0,1.4456,1.453,1.454,1.4568,1.4721,1.4825,1.4845,1.4893,1.4878,1.4917,1.4972,1.4984,1.5183,1.5149,1.5175,1.522,1.5416,1.5422,1.5427,1.5422,1.5429,1.5436,0,0,0,0,0,0,1.4434,1.4544,1.4556,1.4665,1.4735,1.4831,1.4882,1.4899,1.4975,1.4973,1.5027,1.5049,1.5148,1.5193,1.5154,1.5319,1.5299,1.531,1.5286,1.5294,1.53,1.5288,1.5159,0,0,0,0,0,1.4442,1.4518,1.461,1.4696,1.4731,1.48,1.4848,1.4878,1.4953,1.4983,1.5046,1.5117,1.5196,1.5247,1.5324,1.543,1.5452,1.5474,1.5479,1.5484,1.5493,1.5554,1.5565,1.5448,1.5448,1.5447,0,0,1.4459,1.4528,1.4573,1.4694,1.4752,1.483,1.4825,1.4907,1.4966,1.4996,1.5097,1.5144,1.5228,1.5332,1.5381,1.5374,1.553,1.5491,1.5493,1.5501,1.5561,1.5572,1.5581,1.5451,1.5451,1.545,0,0,1.453,1.4589,1.4669,1.4728,1.4817,1.4862,1.4881,1.4975,1.5008,1.511,1.5134,1.5203,1.5338,1.5397,1.5445,1.5537,1.5553,1.5561,1.5592,1.565,1.566,1.5668,1.5703,1.5715,1.5569,1.5569,1.5569,0,1.454,1.4659,1.4707,1.479,1.4842,1.4873,1.4954,1.5008,1.5117,1.5153,1.5142,1.5313,1.5371,1.5491,1.5513,1.555,1.5574,1.5551,1.5654,1.5663,1.5672,1.5706,1.5719,1.557,1.557,1.557,1.557,0,1.4667,1.4749,1.4803,1.4909,1.4967,1.5048,1.5108,1.5161,1.5186,1.5232,1.5335,1.5406,1.5499,1.5529,1.5553,1.5652,1.5645,1.5643,1.5625,1.5683,1.5716,1.5729,1.5571,1.557,1.557,1.557,0,0,1.4732,1.4863,1.4883,1.4932,1.5031,1.5096,1.5177,1.5269,1.5314,1.5387,1.5458,1.5571,1.5571,1.5625,1.5656,1.5707,1.5778,1.57,1.5702,1.5714,1.5893,1.5895,1.591,1.5787,1.579,1.5792,1.5887,0,1.4817,1.4966,1.5012,1.5136,1.5213,1.5242,1.5314,1.5382,1.5427,1.5498,1.5547,1.5627,1.562,1.5653,1.5704,1.5758,1.5815,1.5752,1.5854,1.5857,1.5835,1.5927,1.5929,1.6015,1.59,1.5902,1.5904,0,1.4937,1.5014,1.5146,1.5237,1.5271,1.5335,1.5423,1.549,1.5568,1.5597,1.5657,1.5684,1.577,1.5745,1.5865,1.5821,1.5865,1.5897,1.5902,1.5915,1.5886,1.5945,1.6044,1.6058,1.5924,1.5922,1.5921,0,1.4974,1.511,1.5208,1.5248,1.5356,1.54,1.5446,1.5523,1.5575,1.5651,1.5686,1.577,1.5817,1.5882,1.5931,1.5907,1.6047,1.6025,1.6074,1.6073,1.6104,1.6102,1.6214,1.6128,1.6128,1.6128,1.6127,0,1.5066,1.5146,1.5226,1.5286,1.5376,1.5427,1.5515,1.5563,1.5631,1.57,1.573,1.5794,1.5854,1.5926,1.5964,1.6059,1.6079,1.6105,1.6115,1.6104,1.6101,1.6136,1.6132,1.6131,1.613,1.613,1.6129,0,1.5124,1.518,1.5288,1.5381,1.5406,1.5469,1.5549,1.5608,1.5653,1.5741,1.5764,1.5835,1.5922,1.5976,1.6086,1.6111,1.6216,1.6222,1.619,1.6195,1.6242,1.6238,1.6383,1.6405,1.6301,1.6302,1.6303,0,1.5181,1.5243,1.5343,1.5392,1.5439,1.5518,1.5572,1.5623,1.5678,1.5772,1.582,1.5908,1.5982,1.6119,1.618,1.6264,1.6274,1.6319,1.6287,1.6275,1.6278,1.6275,1.6282,1.6325,1.6326,1.6327,1.6327,0,1.5276,1.53,1.5377,1.5464,1.5527,1.5598,1.5668,1.5706,1.577,1.5829,1.5919,1.5976,1.6089,1.6177,1.6266,1.6314,1.6332,1.6336,1.6353,1.6344,1.6324,1.6338,1.6207,1.6334,1.6333,1.6333,1.6332,1.6332,1.5337,1.5394,1.5474,1.5558,1.5616,1.5681,1.5742,1.5795,1.5871,1.5967,1.5992,1.6086,1.6162,1.6285,1.6334,1.6407,1.6402,1.6424,1.6431,1.6436,1.6439,1.631,1.6423,1.6423,1.6423,1.6423,1.6423,0,1.5436,1.5488,1.5565,1.5663,1.5729,1.574,1.5818,1.5873,1.5956,1.6025,1.6098,1.6201,1.6286,1.6353,1.6441,1.6487,1.6498,1.6509,1.6507,1.6518,1.6438,1.6416,1.6499,1.6499,1.6499,1.6499,1.6499,1.6499,1.5495,1.5594,1.5627,1.5755,1.5806,1.5899,1.5943,1.6003,1.606,1.6174,1.6245,1.6288,1.6357,1.645,1.6529,1.6546,1.6578,1.6588,1.6607,1.6532,1.6523,1.6516,1.6496,1.6594,1.6594,1.6682,1.6683,1.6683]}]]